Location: Beetenbrück
(52.8113°N, 9.5946°E)
Time: 17:15:20
(UTC+00:00)

Cosmos 1725 Rocket - Pass Details

Date: 14 April 2026
Orbit: 960 x 990 km, 82.9° (Epoch: 9 May)

Event Time Altitude Azimuth Distance (km) Brightness Sun altitude
Exits shadow 23:18:33 73° 182° (S) 1,036 3.8 -27.5°
Maximum altitude 23:19:13 88° 99° (E) 999 3.9 -27.5°
Drops below altitude 10° 23:25:35 10° 11° (N) 2,760 7.3 -27.5°
Sets 23:28:07 0° 11° (NNE) 3,710 8.3 -27.5°
